sat.trackr.live / text

‹ back to catalog

STARLINK-37090

NORAD 68193 · 2026-050AC

PAYLOAD ACTIVE UNKNOWN

§ Identity

Operator
Country
US
Launch date
2026-03-14
Launch site
AFETR
Launch vehicle
Mass (kg)
RCS (m²)

Purposes: comms

External: N2YO · Heavens-Above · Gunter

§ Orbital elements

Epoch: 2026-05-24T16:10:28.760736Z

Period
93.85 min
Inclination
53.1602°
Eccentricity
0.0000918
Mean motion
15.34399693 rev/d
Perigee alt
462.1 km
Apogee alt
463.3 km
Semi-major
6,840.8 km
B*
5.6168e-4
RAAN
273.3080°
Arg perigee
94.4347°
Mean anomaly
265.6761°
Rev number
1,232

§ Raw data

STARLINK-370901 68193U 26050AC  26144.67394399  .00018648  00000+0  56168-3 0  99922 68193  53.1602 273.3080 0000918  94.4347 265.6761 15.34399693 12321

JSON: /api/v1/satellites/68193 · /tle

For live sub-satellite position, see the globe view (requires WebGL).

§ Visibility from observer

Set your observer location to see the next 7 days of passes ≥ 10°. The values pass through the URL so the page stays shareable.

No JS? Fill the form by hand. The geolocation button needs JavaScript.